Time,TemperatureF,DewpointF,PressureIn,WindDirection,WindDirectionDegrees,WindSpeedMPH,WindSpeedGustMPH,Humidity,HourlyPrecipIn,Conditions,Clouds,dailyrainin,SolarRadiationWatts/m^2,SoftwareType,DateUTC
2013-02-10 00:00:00,62.9,57.0,30.17,NNE,24,2.0,6.0,80,0.00,,,0.01,0,weatherlink.com 1.10,2013-02-10 05:00:00,
2013-02-10 00:15:00,62.3,56.0,30.17,NE,46,2.0,6.0,81,0.00,,,0.00,0,weatherlink.com 1.10,2013-02-10 05:15:00,
2013-02-10 00:30:00,62.2,56.0,30.17,ENE,71,2.0,8.0,81,0.00,,,0.00,0,weatherlink.com 1.10,2013-02-10 05:30:00,
2013-02-10 00:45:00,62.1,57.0,30.17,East,80,5.0,6.0,82,0.00,,,0.00,0,weatherlink.com 1.10,2013-02-10 05:45:00,
2013-02-10 01:00:00,61.9,57.0,30.16,NE,51,3.0,8.0,83,0.00,,,0.00,0,weatherlink.com 1.10,2013-02-10 06:00:00,
2013-02-10 01:15:00,61.8,57.0,30.16,NE,36,5.0,8.0,83,0.00,,,0.00,0,weatherlink.com 1.10,2013-02-10 06:15:00,
2013-02-10 01:30:00,61.9,57.0,30.17,ENE,69,1.0,10.0,83,0.00,,,0.00,0,weatherlink.com 1.10,2013-02-10 06:30:00,
2013-02-10 01:45:00,61.8,57.0,30.16,NNE,26,4.0,9.0,83,0.00,,,0.00,0,weatherlink.com 1.10,2013-02-10 06:45:00,
2013-02-10 02:00:00,61.6,57.0,30.16,East,82,3.0,9.0,84,0.00,,,0.00,0,weatherlink.com 1.10,2013-02-10 07:00:00,
2013-02-10 02:15:00,61.7,57.0,30.16,East,92,6.0,8.0,85,0.00,,,0.00,0,weatherlink.com 1.10,2013-02-10 07:15:00,
2013-02-10 02:30:00,61.7,57.0,30.15,NE,48,2.0,8.0,85,0.00,,,0.00,0,weatherlink.com 1.10,2013-02-10 07:30:00,
2013-02-10 02:45:00,61.4,57.0,30.15,East,91,3.0,6.0,86,0.00,,,0.00,0,weatherlink.com 1.10,2013-02-10 07:45:00,
2013-02-10 03:00:00,61.5,57.0,30.15,East,92,5.0,8.0,86,0.00,,,0.00,0,weatherlink.com 1.10,2013-02-10 08:00:00,
2013-02-10 03:15:00,61.4,58.0,30.15,ENE,67,4.0,7.0,87,0.00,,,0.00,0,weatherlink.com 1.10,2013-02-10 08:15:00,
2013-02-10 03:30:00,61.1,57.0,30.15,East,79,2.0,7.0,87,0.00,,,0.00,0,weatherlink.com 1.10,2013-02-10 08:30:00,
2013-02-10 03:45:00,61.0,58.0,30.15,East,85,5.0,8.0,88,0.00,,,0.00,0,weatherlink.com 1.10,2013-02-10 08:45:00,
2013-02-10 04:00:00,61.1,58.0,30.16,ENE,68,4.0,6.0,89,0.00,,,0.00,0,weatherlink.com 1.10,2013-02-10 09:00:00,
2013-02-10 04:15:00,61.1,58.0,30.15,East,85,1.0,5.0,89,0.00,,,0.00,0,weatherlink.com 1.10,2013-02-10 09:15:00,
2013-02-10 04:30:00,61.0,58.0,30.15,ENE,72,3.0,4.0,89,0.00,,,0.00,0,weatherlink.com 1.10,2013-02-10 09:30:00,
2013-02-10 04:45:00,61.2,58.0,30.15,East,88,3.0,7.0,89,0.00,,,0.00,0,weatherlink.com 1.10,2013-02-10 09:45:00,
2013-02-10 05:00:00,61.3,58.0,30.15,ENE,71,4.0,7.0,89,0.00,,,0.00,0,weatherlink.com 1.10,2013-02-10 10:00:00,
2013-02-10 05:15:00,61.5,58.0,30.15,NNE,18,1.0,8.0,89,0.00,,,0.00,0,weatherlink.com 1.10,2013-02-10 10:15:00,
2013-02-10 05:30:00,61.6,58.0,30.15,East,94,3.0,9.0,89,0.00,,,0.00,0,weatherlink.com 1.10,2013-02-10 10:30:00,
2013-02-10 05:45:00,61.7,59.0,30.15,ESE,106,4.0,8.0,89,0.00,,,0.00,0,weatherlink.com 1.10,2013-02-10 10:45:00,
2013-02-10 06:00:00,61.5,58.0,30.15,ESE,114,4.0,8.0,89,0.00,,,0.00,0,weatherlink.com 1.10,2013-02-10 11:00:00,
2013-02-10 06:15:00,61.6,58.0,30.16,East,80,5.0,10.0,89,0.00,,,0.00,0,weatherlink.com 1.10,2013-02-10 11:15:00,
2013-02-10 06:30:00,61.5,58.0,30.17,ENE,73,5.0,9.0,89,0.00,,,0.00,0,weatherlink.com 1.10,2013-02-10 11:30:00,
2013-02-10 06:45:00,61.4,58.0,30.18,ESE,106,2.0,6.0,89,0.00,,,0.00,0,weatherlink.com 1.10,2013-02-10 11:45:00,
2013-02-10 07:00:00,61.2,58.0,30.18,East,84,2.0,6.0,90,0.00,,,0.00,0,weatherlink.com 1.10,2013-02-10 12:00:00,
2013-02-10 07:15:00,61.5,58.0,30.19,ENE,76,2.0,6.0,89,0.00,,,0.00,5,weatherlink.com 1.10,2013-02-10 12:15:00,
2013-02-10 07:30:00,61.5,58.0,30.19,East,80,5.0,6.0,89,0.00,,,0.00,23,weatherlink.com 1.10,2013-02-10 12:30:00,
2013-02-10 07:45:00,62.0,59.0,30.19,East,100,1.0,7.0,89,0.00,,,0.00,47,weatherlink.com 1.10,2013-02-10 12:45:00,
2013-02-10 08:00:00,62.6,59.0,30.19,ESE,105,5.0,7.0,88,0.00,,,0.00,100,weatherlink.com 1.10,2013-02-10 13:00:00,
2013-02-10 08:16:00,63.5,60.0,30.20,ESE,107,4.0,8.0,87,0.00,,,0.00,128,weatherlink.com 1.10,2013-02-10 13:16:00,
2013-02-10 08:30:00,64.6,60.0,30.20,NE,40,3.0,10.0,84,0.00,,,0.00,179,weatherlink.com 1.10,2013-02-10 13:30:00,
2013-02-10 08:45:00,65.9,60.0,30.21,East,88,9.0,10.0,82,0.00,,,0.00,236,weatherlink.com 1.10,2013-02-10 13:45:00,
2013-02-10 09:01:00,66.7,60.0,30.22,East,98,8.0,11.0,79,0.00,,,0.00,274,weatherlink.com 1.10,2013-02-10 14:01:00,
2013-02-10 09:16:00,67.5,60.0,30.22,ENE,65,9.0,14.0,78,0.00,,,0.00,334,weatherlink.com 1.10,2013-02-10 14:16:00,
2013-02-10 09:31:00,68.6,61.0,30.23,East,101,9.0,15.0,76,0.00,,,0.00,397,weatherlink.com 1.10,2013-02-10 14:31:00,
2013-02-10 09:46:00,68.5,60.0,30.22,ESE,117,4.0,14.0,75,0.00,,,0.00,202,weatherlink.com 1.10,2013-02-10 14:46:00,
2013-02-10 10:01:00,69.9,61.0,30.23,ESE,105,7.0,14.0,74,0.00,,,0.00,469,weatherlink.com 1.10,2013-02-10 15:01:00,
2013-02-10 10:16:00,71.7,62.0,30.23,ESE,121,8.0,15.0,71,0.00,,,0.00,506,weatherlink.com 1.10,2013-02-10 15:16:00,
2013-02-10 10:31:00,72.3,62.0,30.23,East,87,9.0,16.0,69,0.00,,,0.00,552,weatherlink.com 1.10,2013-02-10 15:31:00,
2013-02-10 10:46:00,73.3,62.0,30.22,ESE,109,7.0,13.0,68,0.00,,,0.00,585,weatherlink.com 1.10,2013-02-10 15:46:00,
2013-02-10 11:01:00,74.0,62.0,30.23,East,96,13.0,17.0,67,0.00,,,0.00,615,weatherlink.com 1.10,2013-02-10 16:01:00,
2013-02-10 11:16:00,75.0,63.0,30.22,SSE,152,14.0,15.0,66,0.00,,,0.00,649,weatherlink.com 1.10,2013-02-10 16:16:00,
2013-02-10 11:31:00,75.7,64.0,30.22,SE,130,7.0,17.0,66,0.00,,,0.00,684,weatherlink.com 1.10,2013-02-10 16:31:00,
2013-02-10 11:46:00,77.7,64.0,30.22,East,90,8.0,12.0,62,0.00,,,0.00,707,weatherlink.com 1.10,2013-02-10 16:46:00,
2013-02-10 12:02:00,77.5,64.0,30.21,ESE,106,10.0,15.0,63,0.00,,,0.00,733,weatherlink.com 1.10,2013-02-10 17:02:00,
2013-02-10 12:17:00,78.0,63.0,30.20,SSE,147,8.0,16.0,61,0.00,,,0.00,773,weatherlink.com 1.10,2013-02-10 17:17:00,
2013-02-10 12:31:00,77.7,63.0,30.19,SE,125,7.0,19.0,61,0.00,,,0.00,761,weatherlink.com 1.10,2013-02-10 17:31:00,
2013-02-10 12:46:00,78.0,63.0,30.18,East,93,7.0,14.0,61,0.00,,,0.00,642,weatherlink.com 1.10,2013-02-10 17:46:00,
2013-02-10 13:01:00,78.5,63.0,30.17,SE,135,4.0,16.0,60,0.00,,,0.00,796,weatherlink.com 1.10,2013-02-10 18:01:00,
2013-02-10 13:16:00,79.6,63.0,30.17,SE,143,6.0,10.0,57,0.00,,,0.00,346,weatherlink.com 1.10,2013-02-10 18:16:00,
2013-02-10 13:31:00,79.4,63.0,30.16,ESE,113,7.0,13.0,58,0.00,,,0.00,323,weatherlink.com 1.10,2013-02-10 18:31:00,
2013-02-10 13:46:00,80.5,64.0,30.15,SE,137,6.0,14.0,57,0.00,,,0.00,888,weatherlink.com 1.10,2013-02-10 18:46:00,
2013-02-10 14:02:00,80.7,64.0,30.14,ESE,119,10.0,14.0,57,0.00,,,0.00,842,weatherlink.com 1.10,2013-02-10 19:02:00,
2013-02-10 14:16:00,81.2,63.0,30.14,East,88,7.0,16.0,54,0.00,,,0.00,844,weatherlink.com 1.10,2013-02-10 19:16:00,
2013-02-10 14:32:00,81.9,64.0,30.13,SE,145,6.0,12.0,54,0.00,,,0.00,784,weatherlink.com 1.10,2013-02-10 19:32:00,
2013-02-10 14:47:00,82.5,63.0,30.13,ESE,117,4.0,13.0,51,0.00,,,0.00,747,weatherlink.com 1.10,2013-02-10 19:47:00,
2013-02-10 15:02:00,83.3,63.0,30.12,SE,143,4.0,13.0,51,0.00,,,0.00,749,weatherlink.com 1.10,2013-02-10 20:02:00,
2013-02-10 15:17:00,83.4,63.0,30.12,SSE,163,2.0,11.0,51,0.00,,,0.00,715,weatherlink.com 1.10,2013-02-10 20:17:00,
2013-02-10 15:32:00,84.8,65.0,30.12,SSE,167,3.0,7.0,52,0.00,,,0.00,656,weatherlink.com 1.10,2013-02-10 20:32:00,
2013-02-10 15:47:00,84.8,65.0,30.12,SW,215,7.0,8.0,52,0.00,,,0.00,578,weatherlink.com 1.10,2013-02-10 20:47:00,
2013-02-10 16:02:00,83.3,65.0,30.13,South,173,4.0,7.0,54,0.00,,,0.00,548,weatherlink.com 1.10,2013-02-10 21:02:00,
2013-02-10 16:17:00,82.1,65.0,30.13,SSW,201,7.0,8.0,56,0.00,,,0.00,510,weatherlink.com 1.10,2013-02-10 21:17:00,
2013-02-10 16:32:00,80.9,64.0,30.13,SW,215,2.0,10.0,57,0.00,,,0.00,369,weatherlink.com 1.10,2013-02-10 21:32:00,
2013-02-10 16:47:00,79.8,64.0,30.14,SW,223,8.0,8.0,59,0.00,,,0.00,371,weatherlink.com 1.10,2013-02-10 21:47:00,
2013-02-10 17:17:00,76.4,63.0,30.13,SSW,211,4.0,7.0,64,0.00,,,0.00,167,weatherlink.com 1.10,2013-02-10 22:17:00,
2013-02-10 17:32:00,74.9,64.0,30.13,SW,215,2.0,6.0,68,0.00,,,0.00,135,weatherlink.com 1.10,2013-02-10 22:32:00,
2013-02-10 17:47:00,74.3,63.0,30.13,SSW,209,1.0,6.0,69,0.00,,,0.00,74,weatherlink.com 1.10,2013-02-10 22:47:00,
2013-02-10 18:02:00,72.7,63.0,30.13,SSW,208,3.0,7.0,72,0.00,,,0.00,32,weatherlink.com 1.10,2013-02-10 23:02:00,
2013-02-10 18:17:00,71.6,63.0,30.14,SSW,194,0.0,4.0,74,0.00,,,0.00,7,weatherlink.com 1.10,2013-02-10 23:17:00,
2013-02-10 18:32:00,70.4,63.0,30.14,SSW,207,1.0,4.0,77,0.00,,,0.00,0,weatherlink.com 1.10,2013-02-10 23:32:00,
2013-02-10 18:47:00,70.3,63.0,30.14,SSW,211,1.0,3.0,78,0.00,,,0.00,0,weatherlink.com 1.10,2013-02-10 23:47:00,
2013-02-10 19:02:00,70.2,63.0,30.15,SSE,150,0.0,3.0,79,0.00,,,0.00,0,weatherlink.com 1.10,2013-02-11 00:02:00,
2013-02-10 19:17:00,70.0,63.0,30.15,SSE,166,0.0,4.0,79,0.00,,,0.00,0,weatherlink.com 1.10,2013-02-11 00:17:00,
2013-02-10 19:32:00,70.0,64.0,30.15,SSE,160,2.0,3.0,80,0.00,,,0.00,0,weatherlink.com 1.10,2013-02-11 00:32:00,
2013-02-10 19:47:00,69.8,63.0,30.16,South,186,1.0,5.0,80,0.00,,,0.00,0,weatherlink.com 1.10,2013-02-11 00:47:00,
2013-02-10 20:02:00,70.0,64.0,30.16,SSE,154,3.0,4.0,80,0.00,,,0.00,0,weatherlink.com 1.10,2013-02-11 01:02:00,
2013-02-10 20:17:00,69.6,64.0,30.17,SE,132,0.0,4.0,81,0.00,,,0.00,0,weatherlink.com 1.10,2013-02-11 01:17:00,
2013-02-10 20:32:00,69.0,63.0,30.17,SE,129,2.0,4.0,82,0.00,,,0.00,0,weatherlink.com 1.10,2013-02-11 01:32:00,
2013-02-10 20:47:00,68.9,63.0,30.18,South,172,0.0,3.0,82,0.00,,,0.00,0,weatherlink.com 1.10,2013-02-11 01:47:00,
2013-02-10 21:02:00,69.3,63.0,30.18,ESE,119,3.0,7.0,81,0.00,,,0.00,0,weatherlink.com 1.10,2013-02-11 02:02:00,
2013-02-10 21:17:00,69.8,62.0,30.18,SSE,162,4.0,11.0,76,0.00,,,0.00,0,weatherlink.com 1.10,2013-02-11 02:17:00,
2013-02-10 21:32:00,69.9,62.0,30.17,SE,140,7.0,13.0,76,0.00,,,0.00,0,weatherlink.com 1.10,2013-02-11 02:32:00,
2013-02-10 21:47:00,69.6,61.0,30.17,SSE,167,2.0,14.0,75,0.00,,,0.00,0,weatherlink.com 1.10,2013-02-11 02:47:00,
2013-02-10 22:02:00,69.2,61.0,30.18,South,172,3.0,14.0,76,0.00,,,0.00,0,weatherlink.com 1.10,2013-02-11 03:02:00,
2013-02-10 22:17:00,68.8,61.0,30.18,SE,133,4.0,13.0,77,0.00,,,0.00,0,weatherlink.com 1.10,2013-02-11 03:17:00,
2013-02-10 22:32:00,68.5,61.0,30.17,SE,128,5.0,14.0,77,0.00,,,0.00,0,weatherlink.com 1.10,2013-02-11 03:32:00,
2013-02-10 22:47:00,68.3,61.0,30.18,SE,130,5.0,13.0,78,0.00,,,0.00,0,weatherlink.com 1.10,2013-02-11 03:47:00,
2013-02-10 23:02:00,68.1,61.0,30.17,ESE,123,8.0,12.0,78,0.00,,,0.00,0,weatherlink.com 1.10,2013-02-11 04:02:00,
2013-02-10 23:17:00,67.7,61.0,30.17,SE,127,8.0,12.0,79,0.00,,,0.00,0,weatherlink.com 1.10,2013-02-11 04:17:00,
2013-02-10 23:32:00,67.2,61.0,30.17,ESE,107,7.0,10.0,80,0.00,,,0.00,0,weatherlink.com 1.10,2013-02-11 04:32:00,
2013-02-10 23:47:00,66.9,61.0,30.17,SE,143,6.0,11.0,81,0.00,,,0.00,0,weatherlink.com 1.10,2013-02-11 04:47:00,